Barter Island, AK

6:08 PM AKDT on April 26, 2018 (GMT -0800)
Barter Island LRRS

Weather History for PABA - October, 2011

Change the Weather History Date:

Friday, October 14, 2011

  Actual Average Record
Temperature  
Mean Temperature 28 °F -  
Max Temperature 30 °F 21 °F 42 °F (2002)
Min Temperature 26 °F 13 °F -5 °F (2008)
Degree Days  
Heating Degree Days 37    
Moisture  
Dew Point 24 °F    
Average Humidity 86    
Maximum Humidity 93    
Minimum Humidity 78    
Precipitation  
Precipitation 0.00 in - - ()
Sea Level Pressure  
Sea Level Pressure 29.73 in    
Wind  
Wind Speed 11 mph (ESE)    
Max Wind Speed 22 mph    
Max Gust Speed -    
Visibility 10 miles    
Events Snow    
Averages and records for this station are not official NWS values.
T = Trace of Precipitation, MM = Missing Value Source: NWS Daily Summary

Daily Weather History Graph

Daily Weather History Graph

Search for Another Location

Airport or City:

Astronomy

Oct. 14, 2011 Rise Set
Actual Time 8:43 AM AKDT 5:55 PM AKDT
Civil Twilight 7:40 AM AKDT 6:58 PM AKDT
Nautical Twilight 6:29 AM AKDT 8:09 PM AKDT
Astronomical Twilight 5:14 AM AKDT 9:23 PM AKDT
Moon No Moon Rise No Moon Set
Length of Visible Light 11h 18m
Length of Day
9h 11m
Waning Gibbous, 93% of the Moon is Illuminated
Oct 14
Waning Gibbous
Oct 19
Last Quarter
Oct 26
New
Nov 2
First Quarter
Nov 10
Full

Hourly Weather History & Observations

Time (AKDT) Temp. Windchill Dew Point Humidity Pressure Visibility Wind Dir Wind Speed Gust Speed Precip Events Conditions
12:01 AM 26.1 °F 14.5 °F 24.1 °F 92% 29.78 in 10.0 mi SE 13.8 mph - N/A   Overcast
1:01 AM 27.0 °F 16.7 °F 25.0 °F 92% 29.77 in 10.0 mi ESE 11.5 mph - N/A   Overcast
2:01 AM 27.0 °F 17.3 °F 25.0 °F 92% 29.77 in 9.0 mi ESE 10.4 mph - N/A Snow Light Snow
2:23 AM 26.6 °F 17.5 °F 24.8 °F 93% 29.77 in 10.0 mi ESE 9.2 mph - 0.00 in   Overcast
3:01 AM 28.0 °F 18.6 °F 25.0 °F 88% 29.76 in 10.0 mi ESE 10.4 mph - 0.00 in   Overcast
4:01 AM 28.0 °F 20.0 °F 24.1 °F 85% 29.76 in 10.0 mi SE 8.1 mph - N/A   Overcast
5:01 AM 28.0 °F 21.7 °F 24.1 °F 85% 29.75 in 10.0 mi SSE 5.8 mph - N/A   Overcast
6:01 AM 27.0 °F 21.6 °F 24.1 °F 89% 29.74 in 10.0 mi South 4.6 mph - N/A   Overcast
7:01 AM 27.0 °F 20.5 °F 24.1 °F 89% 29.73 in 10.0 mi SSW 5.8 mph - 0.00 in   Overcast
8:01 AM 27.0 °F - 24.1 °F 89% 29.72 in 10.0 mi Calm Calm - N/A   Overcast
9:01 AM 27.0 °F 20.5 °F 24.1 °F 89% 29.71 in 10.0 mi South 5.8 mph - N/A   Overcast
10:01 AM 28.0 °F 22.8 °F 24.1 °F 85% 29.71 in 10.0 mi ESE 4.6 mph - N/A   Overcast
11:01 AM 27.0 °F 23.0 °F 24.1 °F 89% 29.71 in 10.0 mi SE 3.5 mph - N/A   Overcast
12:01 PM 27.0 °F 20.5 °F 24.1 °F 89% 29.71 in 10.0 mi ESE 5.8 mph - N/A   Overcast
1:01 PM 28.0 °F 20.0 °F 24.1 °F 85% 29.71 in 10.0 mi East 8.1 mph - N/A   Overcast
2:01 PM 28.9 °F 16.5 °F 23.0 °F 78% 29.71 in 10.0 mi ENE 18.4 mph - N/A   Overcast
3:01 PM 28.9 °F 18.2 °F 23.0 °F 78% 29.71 in 10.0 mi East 13.8 mph - N/A   Overcast
4:01 PM 28.0 °F 16.5 °F 24.1 °F 85% 29.71 in 10.0 mi ESE 15.0 mph - N/A   Overcast
5:01 PM 28.0 °F 14.9 °F 24.1 °F 85% 29.70 in 10.0 mi ESE 19.6 mph - N/A   Overcast
6:01 PM 28.9 °F 16.9 °F 25.0 °F 85% 29.71 in 10.0 mi East 17.3 mph - N/A   Overcast
7:01 PM 28.9 °F 16.9 °F 23.0 °F 78% 29.71 in 10.0 mi ESE 17.3 mph - N/A   Overcast
8:01 PM 28.9 °F 16.1 °F 24.1 °F 82% 29.71 in 10.0 mi ESE 19.6 mph - N/A   Overcast
9:01 PM 30.0 °F 16.9 °F 24.1 °F 79% 29.71 in 10.0 mi East 21.9 mph - N/A   Overcast
11:01 PM 30.0 °F 18.3 °F 28.0 °F 92% 29.71 in 9.0 mi East 17.3 mph - N/A   Unknown